| time (UTC) | temp F | wind direction | speed MPH | gust MPH | rain 1hr in | rain 24hr in | rain mn in | humidity % | barometer mb |
| 20260505210320 | 60 | 344 | 0.0 | 3.0 | 0.00 | 0.01 | 0.00 | 77 | 1016.6 |
| 20260505205830 | 60 | 146 | 0.0 | 3.0 | 0.00 | 0.01 | 0.00 | 77 | 1016.6 |
| 20260505204820 | 60 | 19 | 0.0 | 1.0 | 0.00 | 0.01 | 0.00 | 78 | 1016.6 |
| 20260505204328 | 60 | 330 | 0.0 | 0.0 | 0.00 | 0.01 | 0.00 | 78 | 1016.6 |
| 20260505203850 | 59 | 4 | 0.0 | 1.0 | 0.00 | 0.01 | 0.00 | 79 | 1016.8 |
| 20260505203336 | 59 | 337 | 0.0 | 1.0 | 0.00 | 0.01 | 0.00 | 79 | 1016.8 |
| 20260505202838 | 60 | 357 | 0.0 | 1.0 | 0.00 | 0.01 | 0.00 | 78 | 1016.8 |
| 20260505202344 | 60 | 260 | 0.0 | 0.0 | 0.00 | 0.01 | 0.00 | 79 | 1016.8 |
| 20260505201853 | 59 | 316 | 0.0 | 0.0 | 0.00 | 0.01 | 0.00 | 80 | 1016.8 |
| 20260505201355 | 59 | 316 | 0.0 | 0.0 | 0.00 | 0.01 | 0.00 | 80 | 1016.9 |
| 20260505200837 | 59 | 136 | 0.0 | 0.0 | 0.00 | 0.01 | 0.00 | 80 | 1016.9 |
| 20260505200343 | 59 | 302 | 0.0 | 1.0 | 0.00 | 0.01 | 0.00 | 80 | 1016.9 |
| 20260505195852 | 59 | 300 | 0.0 | 2.0 | 0.00 | 0.01 | 0.00 | 80 | 1016.9 |
| 20260505195329 | 59 | 295 | 0.0 | 2.0 | 0.00 | 0.01 | 0.00 | 79 | 1016.9 |
| 20260505194818 | 59 | 323 | 0.0 | 2.0 | 0.00 | 0.01 | 0.00 | 79 | 1016.9 |
| 20260505194325 | 60 | 306 | 0.0 | 0.0 | 0.00 | 0.01 | 0.00 | 79 | 1016.9 |
| 20260505193827 | 59 | 319 | 0.0 | 0.0 | 0.00 | 0.01 | 0.00 | 79 | 1016.9 |
| 20260505193313 | 59 | 322 | 0.0 | 0.0 | 0.00 | 0.01 | 0.00 | 79 | 1016.9 |
| 20260505192824 | 60 | 315 | 0.0 | 0.0 | 0.00 | 0.01 | 0.00 | 78 | 1016.9 |
| 20260505192322 | 60 | 155 | 0.0 | 1.0 | 0.00 | 0.01 | 0.00 | 78 | 1016.9 |
| 20260505191831 | 60 | 158 | 0.0 | 1.0 | 0.00 | 0.01 | 0.00 | 78 | 1016.9 |
| 20260505191337 | 60 | 312 | 0.0 | 0.0 | 0.00 | 0.01 | 0.00 | 77 | 1016.9 |
| 20260505190820 | 60 | 196 | 0.0 | 0.0 | 0.00 | 0.01 | 0.00 | 78 | 1016.9 |
| 20260505190319 | 60 | 271 | 0.0 | 2.0 | 0.00 | 0.02 | 0.00 | 78 | 1016.9 |
| 20260505185825 | 59 | 312 | 0.0 | 2.0 | 0.00 | 0.02 | 0.00 | 79 | 1016.8 |
| 20260505185325 | 59 | 56 | 0.0 | 3.0 | 0.00 | 0.02 | 0.00 | 79 | 1016.9 |
| 20260505184837 | 59 | 99 | 0.0 | 4.0 | 0.00 | 0.02 | 0.00 | 80 | 1016.9 |
| 20260505184315 | 59 | 181 | 1.0 | 4.0 | 0.00 | 0.02 | 0.00 | 80 | 1016.9 |
| 20260505183818 | 58 | 310 | 0.0 | 1.0 | 0.00 | 0.02 | 0.00 | 81 | 1016.9 |
| 20260505183318 | 58 | 338 | 0.0 | 1.0 | 0.00 | 0.02 | 0.00 | 82 | 1017.0 |
| 20260505182825 | 58 | 345 | 0.0 | 1.0 | 0.00 | 0.02 | 0.00 | 82 | 1017.0 |
| 20260505182325 | 58 | 153 | 0.0 | 2.0 | 0.00 | 0.02 | 0.00 | 82 | 1016.9 |
| 20260505181835 | 58 | 298 | 0.0 | 4.0 | 0.00 | 0.02 | 0.00 | 81 | 1016.9 |
| 20260505181315 | 58 | 250 | 0.0 | 0.0 | 0.00 | 0.02 | 0.00 | 83 | 1016.9 |
| 20260505180818 | 57 | 253 | 0.0 | 0.0 | 0.00 | 0.02 | 0.00 | 83 | 1016.8 |
| 20260505180318 | 57 | 252 | 0.0 | 0.0 | 0.00 | 0.02 | 0.00 | 83 | 1016.8 |
| 20260505175828 | 56 | 331 | 0.0 | 0.0 | 0.00 | 0.02 | 0.00 | 85 | 1016.9 |
| 20260505175328 | 56 | 308 | 0.0 | 0.0 | 0.00 | 0.02 | 0.00 | 85 | 1016.9 |
| 20260505174838 | 56 | 75 | 0.0 | 0.0 | 0.00 | 0.02 | 0.00 | 85 | 1016.9 |
| 20260505174317 | 56 | 101 | 0.0 | 0.0 | 0.00 | 0.02 | 0.00 | 87 | 1016.9 |
| 20260505173820 | 55 | 101 | 0.0 | 0.0 | 0.00 | 0.02 | 0.00 | 87 | 1016.9 |
| 20260505173320 | 55 | 89 | 0.0 | 0.0 | 0.00 | 0.02 | 0.00 | 87 | 1016.9 |
| 20260505172830 | 55 | 141 | 0.0 | 0.0 | 0.00 | 0.02 | 0.00 | 87 | 1016.8 |
| 20260505172330 | 55 | 241 | 0.0 | 0.0 | 0.00 | 0.02 | 0.00 | 88 | 1016.9 |
| 20260505171813 | 55 | 131 | 0.0 | 0.0 | 0.00 | 0.02 | 0.00 | 88 | 1016.8 |
| 20260505171320 | 55 | 131 | 0.0 | 0.0 | 0.00 | 0.02 | 0.00 | 88 | 1016.7 |
| 20260505170823 | 55 | 176 | 0.0 | 0.0 | 0.00 | 0.02 | 0.00 | 88 | 1016.7 |
| 20260505170331 | 55 | 193 | 0.0 | 0.0 | 0.00 | 0.02 | 0.00 | 88 | 1016.6 |
| 20260505165812 | 55 | 248 | 0.0 | 0.0 | 0.00 | 0.02 | 0.00 | 88 | 1016.6 |
| 20260505165313 | 55 | 156 | 0.0 | 0.0 | 0.00 | 0.02 | 0.00 | 89 | 1016.5 |
| 20260505164816 | 54 | 167 | 0.0 | 0.0 | 0.00 | 0.02 | 0.00 | 88 | 1016.5 |
| 20260505164322 | 54 | 163 | 0.0 | 0.0 | 0.00 | 0.02 | 0.00 | 88 | 1016.5 |
| 20260505163825 | 54 | 167 | 0.0 | 2.0 | 0.00 | 0.02 | 0.00 | 88 | 1016.6 |
| 20260505163332 | 54 | 178 | 0.0 | 2.0 | 0.00 | 0.02 | 0.00 | 88 | 1016.5 |
| 20260505162815 | 55 | 198 | 0.0 | 0.0 | 0.00 | 0.02 | 0.00 | 88 | 1016.6 |
| 20260505162315 | 55 | 315 | 0.0 | 0.0 | 0.00 | 0.02 | 0.00 | 87 | 1016.5 |
| 20260505161818 | 55 | 141 | 0.0 | 0.0 | 0.00 | 0.02 | 0.00 | 88 | 1016.4 |
| 20260505161325 | 54 | 141 | 0.0 | 0.0 | 0.00 | 0.02 | 0.00 | 88 | 1016.4 |
| 20260505160828 | 55 | 305 | 0.0 | 0.0 | 0.00 | 0.02 | 0.00 | 87 | 1016.3 |
| 20260505160334 | 55 | 158 | 0.0 | 0.0 | 0.00 | 0.02 | 0.00 | 88 | 1016.3 |
| 20260505153317 | 54 | 133 | 0.0 | 2.0 | 0.00 | 0.02 | 0.00 | 90 | 1016.3 |
| 20260505152827 | 53 | 204 | 0.0 | 1.0 | 0.00 | 0.02 | 0.00 | 90 | 1016.3 |
| 20260505152312 | 53 | 168 | 0.0 | 0.0 | 0.00 | 0.02 | 0.00 | 91 | 1016.3 |
| 20260505151815 | 53 | 214 | 0.0 | 0.0 | 0.00 | 0.02 | 0.00 | 91 | 1016.3 |
| 20260505151322 | 53 | 190 | 0.0 | 0.0 | 0.00 | 0.02 | 0.00 | 91 | 1016.3 |
| 20260505150812 | 53 | 220 | 0.0 | 0.0 | 0.00 | 0.02 | 0.00 | 91 | 1016.3 |
| 20260505150330 | 53 | 160 | 0.0 | 1.0 | 0.00 | 0.02 | 0.00 | 92 | 1016.2 |
| 20260505140316 | 51 | 201 | 0.0 | 1.0 | 0.00 | 0.02 | 0.00 | 93 | 1015.6 |
| 20260505124816 | 51 | 82 | 0.0 | 0.0 | 0.00 | 0.02 | 0.00 | 92 | 1015.3 |
| 20260505124322 | 51 | 82 | 0.0 | 0.0 | 0.00 | 0.02 | 0.00 | 92 | 1015.2 |
| 20260505123821 | 51 | 207 | 0.0 | 0.0 | 0.00 | 0.02 | 0.00 | 92 | 1015.2 |
| 20260505123327 | 51 | 207 | 0.0 | 0.0 | 0.00 | 0.02 | 0.00 | 92 | 1015.1 |
| 20260505122835 | 51 | 207 | 0.0 | 0.0 | 0.00 | 0.02 | 0.00 | 92 | 1015.2 |
| 20260505122314 | 51 | 124 | 0.0 | 0.0 | 0.00 | 0.02 | 0.00 | 92 | 1015.1 |
| 20260505121823 | 51 | 165 | 0.0 | 0.0 | 0.00 | 0.02 | 0.00 | 92 | 1015.1 |
| 20260505121329 | 51 | 195 | 0.0 | 0.0 | 0.00 | 0.02 | 0.00 | 92 | 1015.1 |
| 20260505120838 | 51 | 63 | 0.0 | 0.0 | 0.00 | 0.02 | 0.00 | 92 | 1015.1 |
| 20260505120316 | 51 | 63 | 0.0 | 0.0 | 0.00 | 0.02 | 0.00 | 92 | 1015.1 |
| 20260505115819 | 51 | 63 | 0.0 | 0.0 | 0.00 | 0.02 | 0.00 | 92 | 1015.1 |
| 20260505115326 | 51 | 63 | 0.0 | 0.0 | 0.00 | 0.02 | 0.00 | 92 | 1015.0 |
| 20260505114829 | 51 | 63 | 0.0 | 0.0 | 0.00 | 0.02 | 0.00 | 92 | 1015.1 |
| 20260505114336 | 51 | 63 | 0.0 | 0.0 | 0.00 | 0.02 | 0.00 | 92 | 1015.1 |
| 20260505113819 | 51 | 63 | 0.0 | 0.0 | 0.00 | 0.02 | 0.00 | 93 | 1015.1 |
| 20260505113319 | 51 | 103 | 0.0 | 0.0 | 0.00 | 0.02 | 0.00 | 92 | 1015.0 |
| 20260505112822 | 51 | 139 | 0.0 | 0.0 | 0.00 | 0.02 | 0.00 | 93 | 1015.0 |
| 20260505112329 | 51 | 144 | 0.0 | 0.0 | 0.00 | 0.02 | 0.00 | 93 | 1015.1 |
| 20260505111832 | 51 | 175 | 0.0 | 0.0 | 0.00 | 0.02 | 0.00 | 93 | 1015.1 |
| 20260505111311 | 51 | 85 | 0.0 | 0.0 | 0.00 | 0.02 | 0.00 | 93 | 1015.0 |
| 20260505110821 | 51 | 85 | 0.0 | 0.0 | 0.00 | 0.02 | 0.00 | 93 | 1014.9 |
| 20260505110321 | 51 | 85 | 0.0 | 0.0 | 0.00 | 0.02 | 0.00 | 93 | 1014.9 |
| 20260505101818 | 51 | 167 | 0.0 | 0.0 | 0.00 | 0.02 | 0.00 | 93 | 1014.5 |
| 20260505101318 | 51 | 14 | 0.0 | 0.0 | 0.00 | 0.02 | 0.00 | 93 | 1014.5 |
| 20260505100828 | 51 | 136 | 0.0 | 3.0 | 0.00 | 0.02 | 0.00 | 93 | 1014.5 |
| 20260505100328 | 51 | 165 | 0.0 | 3.0 | 0.00 | 0.02 | 0.00 | 93 | 1014.5 |
| 20260505095838 | 51 | 156 | 0.0 | 1.0 | 0.00 | 0.02 | 0.00 | 93 | 1014.5 |
| 20260505095317 | 51 | 134 | 0.0 | 4.0 | 0.00 | 0.02 | 0.00 | 93 | 1014.6 |
| 20260505094819 | 51 | 145 | 0.0 | 4.0 | 0.00 | 0.02 | 0.00 | 93 | 1014.6 |
| 20260505094319 | 50 | 160 | 0.0 | 2.0 | 0.00 | 0.02 | 0.00 | 93 | 1014.6 |
| 20260505093813 | 51 | 200 | 0.0 | 0.0 | 0.00 | 0.02 | 0.00 | 92 | 1014.6 |
| 20260505093320 | 51 | 123 | 0.0 | 0.0 | 0.00 | 0.02 | 0.00 | 92 | 1014.4 |
| 20260505092331 | 51 | 38 | 0.0 | 0.0 | 0.00 | 0.02 | 0.00 | 92 | 1014.3 |
| 20260505091814 | 51 | 148 | 0.0 | 0.0 | 0.00 | 0.02 | 0.00 | 92 | 1014.4 |
| 20260505091314 | 51 | 196 | 0.0 | 0.0 | 0.00 | 0.02 | 0.00 | 92 | 1014.2 |
| 20260505090823 | 51 | 162 | 0.0 | 0.0 | 0.00 | 0.02 | 0.00 | 92 | 1014.2 |
| 20260505090325 | 51 | 191 | 0.0 | 2.0 | 0.00 | 0.02 | 0.00 | 92 | 1014.2 |
| 20260505085827 | 51 | 178 | 0.0 | 3.0 | 0.00 | 0.02 | 0.00 | 91 | 1014.1 |
| 20260505085313 | 52 | 157 | 1.0 | 3.0 | 0.00 | 0.02 | 0.00 | 91 | 1014.1 |
| 20260505084822 | 52 | 134 | 0.0 | 4.0 | 0.00 | 0.02 | 0.00 | 91 | 1014.1 |
| 20260505083839 | 52 | 199 | 1.0 | 4.0 | 0.00 | 0.02 | 0.00 | 91 | 1014.1 |
| 20260505083318 | 52 | 141 | 1.0 | 4.0 | 0.00 | 0.02 | 0.00 | 90 | 1014.1 |
| 20260505082827 | 52 | 182 | 1.0 | 2.0 | 0.00 | 0.02 | 0.00 | 90 | 1014.1 |
| 20260505082353 | 53 | 181 | 0.0 | 2.0 | 0.00 | 0.02 | 0.00 | 90 | 1014.0 |
| 20260505081835 | 53 | 191 | 0.0 | 3.0 | 0.00 | 0.02 | 0.00 | 90 | 1014.0 |
| 20260505081341 | 53 | 153 | 0.0 | 3.0 | 0.00 | 0.02 | 0.00 | 90 | 1014.1 |
| 20260505080850 | 53 | 179 | 0.0 | 1.0 | 0.00 | 0.02 | 0.00 | 90 | 1014.0 |
| 20260505080349 | 53 | 157 | 0.0 | 0.0 | 0.00 | 0.02 | 0.00 | 90 | 1014.0 |
| 20260505075341 | 53 | 94 | 0.0 | 1.0 | 0.00 | 0.02 | 0.00 | 90 | 1013.9 |
| 20260505074850 | 53 | 146 | 0.0 | 0.0 | 0.00 | 0.02 | 0.00 | 90 | 1013.9 |
| 20260505074357 | 53 | 134 | 0.0 | 0.0 | 0.00 | 0.02 | 0.00 | 89 | 1013.8 |
| 20260505073818 | 53 | 203 | 0.0 | 4.0 | 0.00 | 0.02 | 0.00 | 89 | 1013.7 |
| 20260505073318 | 53 | 165 | 0.0 | 4.0 | 0.00 | 0.02 | 0.00 | 89 | 1013.5 |
| 20260505072821 | 54 | 210 | 0.0 | 2.0 | 0.00 | 0.02 | 0.00 | 88 | 1013.5 |
| 20260505072328 | 54 | 196 | 0.0 | 3.0 | 0.00 | 0.02 | 0.00 | 88 | 1013.4 |
| 20260505071317 | 54 | 141 | 2.0 | 7.0 | 0.00 | 0.02 | 0.00 | 87 | 1013.3 |
| 20260505070827 | 55 | 176 | 0.0 | 3.0 | 0.00 | 0.02 | 0.00 | 87 | 1013.3 |
| 20260505070414 | 55 | 198 | 0.0 | 3.0 | 0.00 | 0.02 | 0.02 | 87 | 1013.3 |
| 20260505065819 | 55 | 200 | 0.0 | 5.0 | 0.00 | 0.02 | 0.02 | 87 | 1013.3 |
| 20260505065319 | 55 | 203 | 1.0 | 5.0 | 0.00 | 0.02 | 0.02 | 87 | 1013.3 |
| 20260505064829 | 55 | 179 | 0.0 | 2.0 | 0.00 | 0.02 | 0.02 | 87 | 1013.2 |
| 20260505064329 | 55 | 200 | 0.0 | 2.0 | 0.00 | 0.02 | 0.02 | 87 | 1013.1 |
| 20260505063840 | 55 | 171 | 0.0 | 4.0 | 0.00 | 0.02 | 0.02 | 87 | 1013.0 |
| 20260505063319 | 55 | 167 | 0.0 | 6.0 | 0.00 | 0.02 | 0.02 | 87 | 1012.9 |
| 20260505062822 | 55 | 252 | 0.0 | 6.0 | 0.00 | 0.02 | 0.02 | 87 | 1012.9 |
| 20260505062322 | 55 | 212 | 1.0 | 4.0 | 0.00 | 0.02 | 0.02 | 86 | 1012.9 |
| 20260505061832 | 56 | 153 | 0.0 | 2.0 | 0.00 | 0.02 | 0.02 | 86 | 1012.8 |
| 20260505061331 | 56 | 162 | 0.0 | 2.0 | 0.00 | 0.02 | 0.02 | 86 | 1012.7 |
| 20260505060813 | 56 | 167 | 0.0 | 0.0 | 0.00 | 0.02 | 0.02 | 86 | 1012.8 |
| 20260505060320 | 56 | 167 | 0.0 | 0.0 | 0.00 | 0.02 | 0.02 | 85 | 1012.7 |
| 20260505055823 | 57 | 167 | 0.0 | 0.0 | 0.00 | 0.02 | 0.02 | 85 | 1012.8 |
| 20260505055323 | 57 | 158 | 0.0 | 0.0 | 0.00 | 0.02 | 0.02 | 85 | 1012.7 |
| 20260505054833 | 57 | 125 | 0.0 | 0.0 | 0.00 | 0.02 | 0.02 | 84 | 1012.7 |
| 20260505054400 | 58 | 30 | 0.0 | 0.0 | 0.00 | 0.02 | 0.02 | 84 | 1012.8 |
| 20260505053818 | 58 | 29 | 0.0 | 0.0 | 0.00 | 0.02 | 0.02 | 84 | 1012.6 |
| 20260505053405 | 58 | 51 | 0.0 | 0.0 | 0.00 | 0.02 | 0.02 | 84 | 1012.6 |
| 20260505052830 | 59 | 103 | 0.0 | 0.0 | 0.00 | 0.02 | 0.02 | 83 | 1012.5 |
| 20260505052349 | 59 | 103 | 0.0 | 0.0 | 0.00 | 0.02 | 0.02 | 82 | 1012.5 |
| 20260505051838 | 60 | 110 | 0.0 | 0.0 | 0.00 | 0.02 | 0.02 | 81 | 1012.5 |
| 20260505051336 | 60 | 61 | 0.0 | 0.0 | 0.00 | 0.02 | 0.02 | 81 | 1012.5 |
| 20260505050841 | 61 | 68 | 0.0 | 0.0 | 0.00 | 0.02 | 0.02 | 80 | 1012.4 |
| 20260505050347 | 61 | 37 | 0.0 | 0.0 | 0.00 | 0.02 | 0.02 | 79 | 1012.4 |
| 20260505041313 | 64 | 304 | 0.0 | 0.0 | 0.00 | 0.02 | 0.02 | 75 | 1011.7 |
| 20260505040822 | 64 | 304 | 0.0 | 0.0 | 0.00 | 0.02 | 0.02 | 74 | 1011.8 |
| 20260505040322 | 64 | 281 | 0.0 | 0.0 | 0.00 | 0.02 | 0.02 | 74 | 1011.7 |
| 20260505035833 | 64 | 333 | 0.0 | 0.0 | 0.00 | 0.02 | 0.02 | 74 | 1011.6 |
| 20260505035312 | 65 | 248 | 0.0 | 0.0 | 0.00 | 0.02 | 0.02 | 74 | 1011.5 |
| 20260505034815 | 65 | 25 | 0.0 | 0.0 | 0.00 | 0.02 | 0.02 | 74 | 1011.4 |
| 20260505034315 | 65 | 323 | 0.0 | 0.0 | 0.00 | 0.02 | 0.02 | 73 | 1011.3 |
| 20260505033822 | 65 | 298 | 0.0 | 0.0 | 0.00 | 0.02 | 0.02 | 73 | 1011.2 |
| 20260505033322 | 66 | 298 | 0.0 | 3.0 | 0.00 | 0.02 | 0.02 | 72 | 1011.2 |
| 20260505032832 | 66 | 162 | 1.0 | 3.0 | 0.00 | 0.02 | 0.02 | 72 | 1011.2 |
| 20260505032312 | 66 | 148 | 0.0 | 2.0 | 0.00 | 0.02 | 0.02 | 73 | 1011.1 |
| 20260505031815 | 67 | 173 | 0.0 | 4.0 | 0.00 | 0.02 | 0.02 | 72 | 1011.1 |
| 20260505031315 | 67 | 139 | 0.0 | 4.0 | 0.00 | 0.02 | 0.02 | 72 | 1011.1 |
| 20260505030825 | 67 | 343 | 0.0 | 4.0 | 0.00 | 0.02 | 0.02 | 73 | 1011.0 |
| 20260505030322 | 68 | 132 | 0.0 | 4.0 | 0.00 | 0.02 | 0.02 | 72 | 1010.9 |
| 20260505025832 | 68 | 86 | 0.0 | 1.0 | 0.00 | 0.02 | 0.02 | 72 | 1010.9 |
| 20260505025316 | 69 | 58 | 0.0 | 2.0 | 0.00 | 0.02 | 0.02 | 72 | 1010.8 |
| 20260505024818 | 69 | 14 | 0.0 | 3.0 | 0.00 | 0.02 | 0.02 | 72 | 1010.8 |
| 20260505024325 | 69 | 51 | 0.0 | 3.0 | 0.00 | 0.02 | 0.02 | 71 | 1010.8 |
| 20260505023828 | 69 | 307 | 0.0 | 1.0 | 0.00 | 0.02 | 0.02 | 71 | 1010.8 |
| 20260505023328 | 69 | 310 | 0.0 | 0.0 | 0.00 | 0.02 | 0.02 | 71 | 1010.7 |
| 20260505022838 | 69 | 310 | 0.0 | 3.0 | 0.00 | 0.02 | 0.02 | 71 | 1010.7 |
| 20260505022318 | 70 | 314 | 0.0 | 4.0 | 0.00 | 0.02 | 0.02 | 70 | 1010.7 |
| 20260505021821 | 70 | 181 | 0.0 | 8.0 | 0.00 | 0.02 | 0.02 | 70 | 1010.8 |
| 20260505021328 | 70 | 136 | 1.0 | 8.0 | 0.00 | 0.02 | 0.02 | 70 | 1010.7 |
| 20260505020831 | 70 | 168 | 0.0 | 3.0 | 0.00 | 0.02 | 0.02 | 70 | 1010.8 |
| 20260505020311 | 70 | 180 | 1.0 | 3.0 | 0.00 | 0.02 | 0.02 | 70 | 1010.7 |
| 20260505015814 | 70 | 49 | 0.0 | 4.0 | 0.00 | 0.02 | 0.02 | 70 | 1010.7 |
| 20260505015321 | 70 | 112 | 0.0 | 4.0 | 0.00 | 0.02 | 0.02 | 69 | 1010.7 |
| 20260505014824 | 70 | 206 | 0.0 | 3.0 | 0.00 | 0.02 | 0.02 | 69 | 1010.7 |
| 20260505014331 | 70 | 127 | 0.0 | 3.0 | 0.00 | 0.02 | 0.02 | 68 | 1010.7 |
| 20260505013814 | 71 | 224 | 0.0 | 5.0 | 0.00 | 0.02 | 0.02 | 68 | 1010.7 |
| 20260505013314 | 71 | 118 | 1.0 | 6.0 | 0.00 | 0.02 | 0.02 | 67 | 1010.8 |
| 20260505012825 | 72 | 131 | 0.0 | 6.0 | 0.00 | 0.02 | 0.02 | 66 | 1010.8 |
| 20260505012323 | 73 | 300 | 0.0 | 6.0 | 0.00 | 0.02 | 0.02 | 64 | 1010.8 |
| 20260505011826 | 73 | 317 | 0.0 | 6.0 | 0.00 | 0.02 | 0.02 | 64 | 1010.8 |
| 20260505011333 | 73 | 200 | 0.0 | 4.0 | 0.00 | 0.02 | 0.02 | 64 | 1011.0 |
| 20260505010817 | 73 | 174 | 0.0 | 7.0 | 0.00 | 0.02 | 0.02 | 65 | 1011.0 |
| 20260505010316 | 73 | 149 | 0.0 | 7.0 | 0.00 | 0.02 | 0.02 | 64 | 1011.0 |
| 20260505005826 | 72 | 312 | 0.0 | 4.0 | 0.00 | 0.02 | 0.02 | 65 | 1011.0 |
| 20260505005325 | 73 | 314 | 0.0 | 5.0 | 0.00 | 0.02 | 0.02 | 64 | 1011.0 |
| 20260505004828 | 72 | 183 | 1.0 | 5.0 | 0.00 | 0.02 | 0.02 | 65 | 1011.1 |
| 20260505003825 | 72 | 86 | 0.0 | 4.0 | 0.00 | 0.02 | 0.02 | 64 | 1011.1 |
| 20260505003325 | 72 | 302 | 1.0 | 5.0 | 0.00 | 0.02 | 0.02 | 64 | 1011.1 |
| 20260505002316 | 72 | 222 | 0.0 | 2.0 | 0.00 | 0.02 | 0.02 | 65 | 1011.1 |
| 20260505001818 | 72 | 129 | 0.0 | 2.0 | 0.00 | 0.02 | 0.02 | 65 | 1011.2 |
| 20260505001318 | 72 | 250 | 0.0 | 12.0 | 0.00 | 0.02 | 0.02 | 65 | 1011.1 |
| 20260505000828 | 72 | 173 | 1.0 | 12.0 | 0.00 | 0.02 | 0.02 | 65 | 1011.2 |
| 20260505000328 | 72 | 309 | 0.0 | 6.0 | 0.00 | 0.02 | 0.02 | 65 | 1011.2 |
| 20260504235838 | 71 | 131 | 0.0 | 6.0 | 0.00 | 0.02 | 0.02 | 65 | 1011.2 |
| 20260504235318 | 71 | 307 | 2.0 | 5.0 | 0.00 | 0.02 | 0.02 | 65 | 1011.2 |
| 20260504234822 | 71 | 206 | 0.0 | 7.0 | 0.00 | 0.02 | 0.02 | 66 | 1011.2 |
| 20260504234321 | 71 | 191 | 1.0 | 8.0 | 0.00 | 0.02 | 0.02 | 65 | 1011.3 |
| 20260504233831 | 71 | 124 | 1.0 | 8.0 | 0.00 | 0.02 | 0.02 | 65 | 1011.4 |
| 20260504233331 | 72 | 143 | 0.0 | 5.0 | 0.00 | 0.02 | 0.02 | 64 | 1011.5 |
| 20260504232821 | 71 | 152 | 1.0 | 6.0 | 0.00 | 0.02 | 0.02 | 66 | 1011.4 |
| 20260504232328 | 70 | 164 | 2.0 | 8.0 | 0.00 | 0.02 | 0.02 | 66 | 1011.5 |
| 20260504231318 | 71 | 212 | 0.0 | 8.0 | 0.00 | 0.02 | 0.02 | 65 | 1011.5 |
| 20260504230828 | 71 | 195 | 1.0 | 4.0 | 0.00 | 0.02 | 0.02 | 64 | 1011.6 |
| 20260504225817 | 72 | 192 | 1.0 | 4.0 | 0.00 | 0.02 | 0.02 | 63 | 1011.6 |
| 20260504225324 | 72 | 178 | 0.0 | 5.0 | 0.00 | 0.02 | 0.02 | 63 | 1011.8 |
| 20260504224825 | 72 | 330 | 0.0 | 5.0 | 0.00 | 0.02 | 0.02 | 62 | 1011.9 |
| 20260504224331 | 71 | 232 | 0.0 | 5.0 | 0.00 | 0.02 | 0.02 | 64 | 1011.8 |
| 20260504223819 | 70 | 217 | 0.0 | 5.0 | 0.00 | 0.02 | 0.02 | 64 | 1011.9 |
| 20260504223318 | 70 | 295 | 1.0 | 7.0 | 0.00 | 0.02 | 0.02 | 65 | 1011.9 |
| 20260504222827 | 70 | 133 | 3.0 | 7.0 | 0.00 | 0.02 | 0.02 | 64 | 1011.9 |
| 20260504222313 | 70 | 130 | 2.0 | 7.0 | 0.00 | 0.02 | 0.02 | 65 | 1012.0 |
| 20260504221816 | 70 | 302 | 0.0 | 5.0 | 0.00 | 0.02 | 0.02 | 64 | 1012.1 |
| 20260504221322 | 69 | 324 | 1.0 | 6.0 | 0.00 | 0.02 | 0.02 | 64 | 1012.1 |
| 20260504220825 | 70 | 200 | 2.0 | 6.0 | 0.00 | 0.02 | 0.02 | 64 | 1012.2 |
| 20260504220332 | 69 | 275 | 0.0 | 8.0 | 0.00 | 0.02 | 0.02 | 65 | 1012.3 |
| 20260504215815 | 69 | 210 | 1.0 | 8.0 | 0.00 | 0.02 | 0.02 | 64 | 1012.3 |
| 20260504215315 | 70 | 134 | 1.0 | 4.0 | 0.00 | 0.02 | 0.02 | 64 | 1012.4 |
| 20260504214818 | 70 | 1 | 1.0 | 3.0 | 0.00 | 0.02 | 0.02 | 64 | 1012.4 |
| 20260504214325 | 71 | 342 | 1.0 | 6.0 | 0.00 | 0.02 | 0.02 | 62 | 1012.4 |
| 20260504213827 | 69 | 289 | 1.0 | 6.0 | 0.00 | 0.02 | 0.02 | 66 | 1012.5 |
| 20260504213335 | 68 | 70 | 2.0 | 5.0 | 0.00 | 0.02 | 0.02 | 67 | 1012.5 |
| 20260504212817 | 67 | 306 | 2.0 | 6.0 | 0.00 | 0.02 | 0.02 | 67 | 1012.6 |
| 20260504211813 | 68 | 328 | 0.0 | 5.0 | 0.00 | 0.02 | 0.02 | 65 | 1012.6 |
| 20260504211321 | 68 | 308 | 0.0 | 5.0 | 0.01 | 0.02 | 0.02 | 66 | 1012.8 |
| 20260504210824 | 67 | 180 | 2.0 | 5.0 | 0.01 | 0.02 | 0.02 | 67 | 1012.9 |